Wetterdaten: aktuell Donnerstag, 26.04.2018 03:15
Datum Zeit Temp. I. Temp. A. Feuchte I. Feuchte A. Luftdruck Regen Wind Richtung Richtung Taupunkt Windchill Windben
26.04.2018 03:15 15,2 C 8,1 C 49 % 67 % 1013,4 hPa 0,0 l/m 17,7 km/h W-SW 247 2,3 C 1,7 C 22,5 km/h
26.04.2018 03:10 15,2 C 8,3 C 49 % 66 % 1013,5 hPa 0,0 l/m 19,3 km/h W-SW 247 2,3 C 1,3 C 24,1 km/h
26.04.2018 03:05 15,3 C 8,4 C 49 % 66 % 1013,4 hPa 0,0 l/m 17,7 km/h W-SW 247 2,4 C 2,1 C 22,5 km/h
26.04.2018 03:00 15,3 C 8,6 C 48 % 65 % 1013,5 hPa 0,0 l/m 19,3 km/h W-SW 247 2,4 C 1,7 C 25,7 km/h
26.04.2018 02:55 15,4 C 8,6 C 48 % 65 % 1013,5 hPa 0,0 l/m 20,9 km/h W-SW 247 2,4 C 1,2 C 25,7 km/h
26.04.2018 02:50 15,6 C 8,7 C 48 % 64 % 1013,4 hPa 0,0 l/m 20,9 km/h W-SW 247 2,3 C 1,3 C 25,7 km/h
26.04.2018 02:45 15,7 C 8,7 C 48 % 64 % 1013,5 hPa 0,0 l/m 20,9 km/h W-SW 247 2,3 C 1,3 C 32,2 km/h
26.04.2018 02:40 15,7 C 8,6 C 48 % 65 % 1013,6 hPa 0,0 l/m 16,1 km/h W-SW 247 2,4 C 3,0 C 22,5 km/h
26.04.2018 02:35 15,8 C 8,8 C 48 % 63 % 1013,6 hPa 0,0 l/m 14,5 km/h W-SW 247 2,2 C 3,9 C 17,7 km/h
26.04.2018 02:30 15,8 C 9,1 C 48 % 62 % 1013,6 hPa 0,0 l/m 14,5 km/h W-SW 247 2,2 C 4,3 C 17,7 km/h
26.04.2018 02:25 15,8 C 9,1 C 48 % 62 % 1013,6 hPa 0,0 l/m 14,5 km/h W-SW 247 2,2 C 4,3 C 19,3 km/h
26.04.2018 02:20 15,9 C 9,2 C 47 % 62 % 1013,6 hPa 0,0 l/m 17,7 km/h W 270 2,3 C 3,1 C 24,1 km/h
26.04.2018 02:15 16,0 C 9,4 C 47 % 61 % 1013,5 hPa 0,0 l/m 19,3 km/h W 270 2,3 C 2,7 C 29,0 km/h
26.04.2018 02:10 16,1 C 9,4 C 48 % 60 % 1013,6 hPa 0,0 l/m 22,5 km/h W 270 2,0 C 1,7 C 25,7 km/h
26.04.2018 02:05 16,1 C 9,6 C 48 % 60 % 1013,7 hPa 0,0 l/m 22,5 km/h W 270 2,2 C 2,0 C 32,2 km/h
26.04.2018 02:00 16,2 C 9,7 C 48 % 60 % 1013,7 hPa 0,0 l/m 20,9 km/h W 270 2,3 C 2,6 C 30,6 km/h
26.04.2018 01:55 16,3 C 9,7 C 48 % 61 % 1013,5 hPa 0,0 l/m 20,9 km/h W 270 2,5 C 2,6 C 27,4 km/h
26.04.2018 01:50 16,4 C 9,7 C 48 % 61 % 1013,6 hPa 0,0 l/m 22,5 km/h W 270 2,5 C 2,1 C 32,2 km/h
26.04.2018 01:45 16,4 C 9,7 C 49 % 61 % 1013,5 hPa 0,0 l/m 24,1 km/h W-SW 247 2,5 C 1,7 C 38,6 km/h
26.04.2018 01:40 16,6 C 9,7 C 49 % 62 % 1013,4 hPa 0,0 l/m 22,5 km/h W 270 2,8 C 2,1 C 27,4 km/h
26.04.2018 01:35 16,6 C 9,6 C 50 % 65 % 1013,4 hPa 0,0 l/m 20,9 km/h W 270 3,4 C 2,5 C 29,0 km/h
26.04.2018 01:30 16,7 C 9,8 C 50 % 65 % 1013,1 hPa 0,0 l/m 20,9 km/h W 270 3,5 C 2,7 C 27,4 km/h
26.04.2018 01:25 16,8 C 9,9 C 51 % 66 % 1013,1 hPa 0,0 l/m 22,5 km/h W 270 3,9 C 2,4 C 32,2 km/h
26.04.2018 01:20 16,9 C 10,2 C 52 % 67 % 1013,1 hPa 0,0 l/m 17,7 km/h W 270 4,4 C 4,3 C 24,1 km/h
26.04.2018 01:15 17,0 C 10,3 C 52 % 67 % 1013,1 hPa 0,0 l/m 17,7 km/h W-SW 247 4,4 C 4,5 C 24,1 km/h
26.04.2018 01:10 17,1 C 10,4 C 52 % 68 % 1013,1 hPa 0,0 l/m 17,7 km/h W-SW 247 4,8 C 4,6 C 22,5 km/h
26.04.2018 01:05 17,2 C 10,3 C 52 % 72 % 1013,1 hPa 0,0 l/m 17,7 km/h W-SW 247 5,5 C 4,5 C 25,7 km/h
26.04.2018 01:00 17,2 C 10,3 C 52 % 75 % 1013,2 hPa 0,0 l/m 14,5 km/h W-SW 247 6,1 C 5,7 C 17,7 km/h
26.04.2018 00:55 17,3 C 10,3 C 52 % 75 % 1013,2 hPa 0,0 l/m 11,3 km/h SW 225 6,1 C 7,2 C 16,1 km/h
26.04.2018 00:50 17,3 C 10,3 C 52 % 76 % 1013,1 hPa 0,0 l/m 11,3 km/h W-SW 247 6,3 C 7,2 C 16,1 km/h
26.04.2018 00:45 17,4 C 10,3 C 52 % 76 % 1013,1 hPa 0,0 l/m 11,3 km/h W-SW 247 6,3 C 7,2 C 16,1 km/h
26.04.2018 00:40 17,4 C 10,3 C 52 % 76 % 1013,1 hPa 0,0 l/m 11,3 km/h SW 225 6,3 C 7,2 C 16,1 km/h
26.04.2018 00:35 17,4 C 10,4 C 52 % 75 % 1013,0 hPa 0,0 l/m 12,9 km/h SW 225 6,2 C 6,5 C 16,1 km/h
26.04.2018 00:30 17,5 C 10,5 C 51 % 75 % 1012,9 hPa 0,0 l/m 11,3 km/h SW 225 6,3 C 7,4 C 16,1 km/h
26.04.2018 00:25 17,5 C 10,6 C 51 % 75 % 1012,9 hPa 0,0 l/m 12,9 km/h W-SW 247 6,4 C 6,8 C 17,7 km/h
26.04.2018 00:20 17,6 C 10,6 C 51 % 75 % 1012,9 hPa 0,0 l/m 11,3 km/h W-SW 247 6,4 C 7,6 C 20,9 km/h
26.04.2018 00:15 17,6 C 10,6 C 51 % 74 % 1012,9 hPa 0,0 l/m 14,5 km/h SW 225 6,2 C 6,1 C 20,9 km/h
26.04.2018 00:10 17,6 C 10,6 C 51 % 75 % 1012,9 hPa 0,0 l/m 12,9 km/h W-SW 247 6,4 C 6,8 C 17,7 km/h
26.04.2018 00:05 17,6 C 10,6 C 51 % 74 % 1012,9 hPa 0,0 l/m 11,3 km/h W-SW 247 6,2 C 7,6 C 17,7 km/h
26.04.2018 00:00 17,7 C 10,6 C 51 % 75 % 1012,9 hPa 0,0 l/m 12,9 km/h W-SW 247 6,4 C 6,8 C 17,7 km/h
25.04.2018 23:55 17,7 C 10,6 C 51 % 75 % 1012,9 hPa 0,0 l/m 9,7 km/h W-SW 247 6,4 C 8,4 C 14,5 km/h
25.04.2018 23:50 17,7 C 10,7 C 51 % 74 % 1012,9 hPa 0,0 l/m 8,0 km/h W-SW 247 6,3 C 9,6 C 12,9 km/h
25.04.2018 23:45 17,8 C 10,8 C 51 % 74 % 1012,9 hPa 0,0 l/m 8,0 km/h W-SW 247 6,4 C 9,7 C 12,9 km/h
25.04.2018 23:40 17,8 C 10,8 C 50 % 74 % 1012,6 hPa 0,0 l/m 8,0 km/h W-SW 247 6,4 C 9,7 C 12,9 km/h
25.04.2018 23:35 17,8 C 10,8 C 50 % 74 % 1012,6 hPa 0,0 l/m 6,4 km/h W-SW 247 6,4 C 10,8 C 8,0 km/h
25.04.2018 23:30 17,8 C 10,9 C 50 % 74 % 1012,6 hPa 0,0 l/m 8,0 km/h W-SW 247 6,5 C 9,8 C 11,3 km/h
25.04.2018 23:25 17,8 C 11,1 C 50 % 73 % 1012,6 hPa 0,0 l/m 8,0 km/h W-SW 247 6,4 C 10,0 C 12,9 km/h
25.04.2018 23:20 17,9 C 11,2 C 50 % 72 % 1012,6 hPa 0,0 l/m 9,7 km/h SW 225 6,3 C 9,1 C 14,5 km/h
25.04.2018 23:15 17,9 C 11,2 C 50 % 72 % 1012,5 hPa 0,0 l/m 14,5 km/h SW 225 6,3 C 6,8 C 19,3 km/h
25.04.2018 23:10 17,9 C 11,3 C 49 % 72 % 1012,5 hPa 0,0 l/m 14,5 km/h SW 225 6,4 C 6,9 C 19,3 km/h
25.04.2018 23:05 17,9 C 11,3 C 49 % 72 % 1012,5 hPa 0,0 l/m 14,5 km/h SW 225 6,4 C 6,9 C 19,3 km/h
25.04.2018 23:00 18,0 C 11,3 C 49 % 71 % 1012,5 hPa 0,0 l/m 12,9 km/h W-SW 247 6,2 C 7,6 C 17,7 km/h
25.04.2018 22:55 18,1 C 11,3 C 49 % 71 % 1012,4 hPa 0,0 l/m 11,3 km/h SW 225 6,2 C 8,4 C 16,1 km/h
25.04.2018 22:50 18,1 C 11,3 C 49 % 70 % 1012,3 hPa 0,0 l/m 12,9 km/h SW 225 6,0 C 7,6 C 17,7 km/h
25.04.2018 22:45 18,1 C 11,3 C 49 % 70 % 1012,4 hPa 0,0 l/m 12,9 km/h SW 225 6,0 C 7,6 C 16,1 km/h
25.04.2018 22:40 18,1 C 11,3 C 49 % 70 % 1012,3 hPa 0,0 l/m 12,9 km/h W-SW 247 6,0 C 7,6 C 16,1 km/h
25.04.2018 22:35 18,2 C 11,2 C 49 % 70 % 1012,3 hPa 0,0 l/m 12,9 km/h SW 225 5,9 C 7,5 C 17,7 km/h
25.04.2018 22:30 18,2 C 11,5 C 48 % 68 % 1012,3 hPa 0,0 l/m 9,7 km/h W-SW 247 5,8 C 9,4 C 14,5 km/h
25.04.2018 22:25 18,2 C 11,4 C 48 % 68 % 1012,3 hPa 0,0 l/m 8,0 km/h W-SW 247 5,7 C 10,3 C 12,9 km/h
25.04.2018 22:20 18,2 C 11,7 C 48 % 67 % 1012,2 hPa 0,0 l/m 8,0 km/h W-SW 247 5,8 C 10,6 C 11,3 km/h
25.04.2018 22:15 18,2 C 11,9 C 48 % 66 % 1012,1 hPa 0,0 l/m 8,0 km/h W 270 5,8 C 10,8 C 8,0 km/h
25.04.2018 22:10 18,3 C 11,9 C 48 % 65 % 1012,2 hPa 0,0 l/m 8,0 km/h W 270 5,5 C 10,8 C 11,3 km/h
25.04.2018 22:05 18,3 C 11,9 C 48 % 65 % 1012,1 hPa 0,0 l/m 9,7 km/h W-SW 247 5,5 C 9,9 C 12,9 km/h
25.04.2018 22:00 18,3 C 11,8 C 48 % 65 % 1012,1 hPa 0,0 l/m 9,7 km/h W-SW 247 5,4 C 9,7 C 12,9 km/h
25.04.2018 21:55 18,3 C 12,0 C 48 % 65 % 1012,1 hPa 0,0 l/m 8,0 km/h W-SW 247 5,6 C 11,0 C 11,3 km/h
25.04.2018 21:50 18,4 C 12,2 C 47 % 64 % 1011,9 hPa 0,0 l/m 8,0 km/h W-SW 247 5,6 C 11,2 C 11,3 km/h
25.04.2018 21:45 18,4 C 12,3 C 47 % 63 % 1012,0 hPa 0,0 l/m 9,7 km/h W-SW 247 5,5 C 10,3 C 12,9 km/h
25.04.2018 21:40 18,5 C 12,4 C 47 % 63 % 1012,0 hPa 0,0 l/m 11,3 km/h W-SW 247 5,6 C 9,6 C 14,5 km/h
25.04.2018 21:35 18,6 C 12,3 C 47 % 63 % 1012,0 hPa 0,0 l/m 11,3 km/h W-SW 247 5,5 C 9,5 C 14,5 km/h
25.04.2018 21:30 18,6 C 12,3 C 47 % 63 % 1011,7 hPa 0,0 l/m 8,0 km/h W 270 5,5 C 11,3 C 11,3 km/h
25.04.2018 21:25 18,7 C 12,3 C 47 % 63 % 1011,6 hPa 0,0 l/m 6,4 km/h W 270 5,5 C 12,3 C 8,0 km/h
25.04.2018 21:20 18,7 C 12,4 C 47 % 63 % 1011,6 hPa 0,0 l/m 6,4 km/h W 270 5,6 C 12,4 C 6,4 km/h
25.04.2018 21:15 18,8 C 12,6 C 46 % 62 % 1011,5 hPa 0,0 l/m 6,4 km/h W-SW 247 5,5 C 12,6 C 8,0 km/h
25.04.2018 21:10 18,9 C 12,7 C 46 % 61 % 1011,4 hPa 0,0 l/m 8,0 km/h W-SW 247 5,4 C 11,7 C 14,5 km/h
25.04.2018 21:05 19,0 C 12,8 C 46 % 61 % 1011,4 hPa 0,0 l/m 11,3 km/h W-SW 247 5,5 C 10,1 C 14,5 km/h
25.04.2018 21:00 19,1 C 12,8 C 46 % 61 % 1011,6 hPa 0,0 l/m 11,3 km/h W-SW 247 5,5 C 10,1 C 14,5 km/h
25.04.2018 20:55 19,2 C 12,8 C 46 % 62 % 1011,5 hPa 0,0 l/m 8,0 km/h W-SW 247 5,7 C 11,8 C 11,3 km/h
25.04.2018 20:50 19,2 C 12,9 C 46 % 62 % 1011,5 hPa 0,0 l/m 8,0 km/h W 270 5,8 C 11,9 C 12,9 km/h
25.04.2018 20:45 19,3 C 12,9 C 45 % 61 % 1011,6 hPa 0,0 l/m 8,0 km/h W 270 5,6 C 11,9 C 12,9 km/h
25.04.2018 20:40 19,3 C 13,1 C 45 % 61 % 1011,8 hPa 0,0 l/m 11,3 km/h W 270 5,8 C 10,4 C 14,5 km/h
25.04.2018 20:35 19,4 C 13,2 C 45 % 60 % 1011,5 hPa 0,0 l/m 12,9 km/h W 270 5,6 C 9,8 C 17,7 km/h
25.04.2018 20:30 19,4 C 13,2 C 45 % 60 % 1011,6 hPa 0,0 l/m 12,9 km/h W 270 5,6 C 9,8 C 16,1 km/h
25.04.2018 20:25 19,4 C 13,2 C 45 % 60 % 1011,4 hPa 0,0 l/m 12,9 km/h W 270 5,6 C 9,8 C 19,3 km/h
25.04.2018 20:20 19,6 C 13,3 C 44 % 60 % 1011,3 hPa 0,0 l/m 16,1 km/h W 270 5,7 C 8,7 C 20,9 km/h
25.04.2018 20:15 19,7 C 13,4 C 44 % 59 % 1011,4 hPa 0,0 l/m 16,1 km/h W 270 5,6 C 8,9 C 22,5 km/h
25.04.2018 20:10 19,8 C 13,4 C 44 % 60 % 1011,3 hPa 0,0 l/m 20,9 km/h W 270 5,8 C 7,4 C 35,4 km/h
25.04.2018 20:05 19,9 C 13,6 C 44 % 59 % 1011,4 hPa 0,0 l/m 19,3 km/h W 270 5,7 C 8,1 C 30,6 km/h
25.04.2018 20:00 20,0 C 13,7 C 44 % 60 % 1011,4 hPa 0,0 l/m 12,9 km/h W 270 6,1 C 10,4 C 19,3 km/h
25.04.2018 19:55 20,2 C 13,8 C 44 % 59 % 1011,1 hPa 0,0 l/m 19,3 km/h W-NW 292 5,9 C 8,4 C 24,1 km/h
25.04.2018 19:50 20,3 C 13,9 C 43 % 59 % 1011,1 hPa 0,0 l/m 19,3 km/h W 270 6,0 C 8,5 C 29,0 km/h
25.04.2018 19:45 20,6 C 14,1 C 43 % 59 % 1011,0 hPa 0,0 l/m 22,5 km/h W 270 6,2 C 8,0 C 30,6 km/h
25.04.2018 19:40 20,7 C 14,1 C 43 % 59 % 1010,8 hPa 0,0 l/m 16,1 km/h W 270 6,2 C 9,7 C 24,1 km/h
25.04.2018 19:35 20,9 C 14,2 C 43 % 58 % 1010,8 hPa 0,0 l/m 17,7 km/h W 270 6,1 C 9,4 C 24,1 km/h
25.04.2018 19:30 21,1 C 14,2 C 43 % 58 % 1010,8 hPa 0,0 l/m 14,5 km/h W 270 6,1 C 10,4 C 19,3 km/h
25.04.2018 19:25 21,2 C 14,3 C 42 % 58 % 1010,5 hPa 0,0 l/m 12,9 km/h W 270 6,2 C 11,1 C 19,3 km/h
25.04.2018 19:20 21,4 C 14,4 C 42 % 58 % 1010,8 hPa 0,0 l/m 16,1 km/h W 270 6,2 C 10,1 C 20,9 km/h
25.04.2018 19:15 21,6 C 14,4 C 42 % 57 % 1010,7 hPa 0,0 l/m 17,7 km/h W 270 6,0 C 9,6 C 20,9 km/h
25.04.2018 19:10 21,8 C 14,6 C 42 % 58 % 1010,9 hPa 0,0 l/m 14,5 km/h W 270 6,4 C 10,9 C 22,5 km/h
25.04.2018 19:05 21,9 C 14,7 C 42 % 57 % 1010,8 hPa 0,0 l/m 12,9 km/h W 270 6,3 C 11,6 C 17,7 km/h
25.04.2018 19:00 22,0 C 14,7 C 42 % 57 % 1010,7 hPa 0,0 l/m 14,5 km/h W 270 6,3 C 11,0 C 19,3 km/h
25.04.2018 18:55 22,0 C 14,7 C 42 % 59 % 1010,7 hPa 0,0 l/m 9,7 km/h W 270 6,8 C 12,9 C 14,5 km/h
25.04.2018 18:50 22,1 C 14,7 C 41 % 58 % 1010,6 hPa 0,0 l/m 14,5 km/h W 270 6,5 C 11,0 C 17,7 km/h
25.04.2018 18:45 22,3 C 14,7 C 41 % 58 % 1010,7 hPa 0,0 l/m 16,1 km/h W 270 6,5 C 10,5 C 22,5 km/h
25.04.2018 18:40 22,5 C 14,8 C 41 % 59 % 1010,8 hPa 0,0 l/m 12,9 km/h W 270 6,9 C 11,7 C 17,7 km/h
25.04.2018 18:35 22,8 C 14,8 C 40 % 58 % 1010,9 hPa 0,0 l/m 19,3 km/h W 270 6,6 C 9,7 C 24,1 km/h
25.04.2018 18:30 23,1 C 14,9 C 40 % 58 % 1010,7 hPa 0,0 l/m 16,1 km/h W 270 6,7 C 10,7 C 24,1 km/h
25.04.2018 18:25 23,3 C 14,9 C 40 % 58 % 1010,9 hPa 0,0 l/m 20,9 km/h W-NW 292 6,7 C 9,4 C 29,0 km/h
25.04.2018 18:20 23,6 C 15,1 C 39 % 58 % 1010,9 hPa 0,0 l/m 16,1 km/h W-NW 292 6,9 C 11,0 C 24,1 km/h
25.04.2018 18:15 23,9 C 15,0 C 39 % 58 % 1011,0 hPa 0,0 l/m 17,7 km/h W-NW 292 6,8 C 10,4 C 25,7 km/h
25.04.2018 18:10 24,2 C 15,2 C 39 % 58 % 1010,7 hPa 0,0 l/m 19,3 km/h W-NW 292 7,0 C 10,2 C 27,4 km/h
25.04.2018 18:05 24,3 C 15,1 C 39 % 58 % 1010,7 hPa 0,0 l/m 19,3 km/h W 270 6,9 C 10,1 C 27,4 km/h
25.04.2018 18:00 24,2 C 15,3 C 38 % 59 % 1010,6 hPa 0,0 l/m 20,9 km/h W-NW 292 7,3 C 9,9 C 29,0 km/h
25.04.2018 17:55 24,1 C 15,2 C 39 % 59 % 1010,7 hPa 0,0 l/m 22,5 km/h W-NW 292 7,2 C 9,4 C 33,8 km/h
25.04.2018 17:50 24,3 C 15,3 C 39 % 59 % 1010,5 hPa 0,0 l/m 22,5 km/h W-NW 292 7,3 C 9,5 C 30,6 km/h
25.04.2018 17:45 24,3 C 15,2 C 40 % 59 % 1010,6 hPa 0,0 l/m 19,3 km/h W 270 7,2 C 10,2 C 25,7 km/h
25.04.2018 17:40 24,4 C 15,1 C 40 % 60 % 1010,7 hPa 0,0 l/m 17,7 km/h W 270 7,4 C 10,5 C 27,4 km/h
25.04.2018 17:35 24,6 C 15,1 C 40 % 60 % 1010,8 hPa 0,0 l/m 19,3 km/h W 270 7,4 C 10,1 C 25,7 km/h
25.04.2018 17:30 24,6 C 15,2 C 40 % 62 % 1010,9 hPa 0,0 l/m 22,5 km/h W 270 8,0 C 9,4 C 38,6 km/h
25.04.2018 17:25 24,4 C 15,1 C 40 % 61 % 1010,8 hPa 0,0 l/m 25,7 km/h W-SW 247 7,6 C 8,6 C 33,8 km/h
25.04.2018 17:20 24,3 C 15,1 C 41 % 60 % 1010,7 hPa 0,0 l/m 27,4 km/h W 270 7,4 C 8,3 C 38,6 km/h
25.04.2018 17:15 24,1 C 15,1 C 42 % 61 % 1010,9 hPa 0,0 l/m 22,5 km/h W 270 7,6 C 9,3 C 32,2 km/h
25.04.2018 17:10 23,9 C 14,9 C 43 % 63 % 1010,9 hPa 0,0 l/m 24,1 km/h W 270 7,9 C 8,7 C 35,4 km/h
25.04.2018 17:05 23,7 C 14,9 C 43 % 64 % 1010,8 hPa 0,0 l/m 22,5 km/h W-NW 292 8,2 C 9,0 C 33,8 km/h
25.04.2018 17:00 23,4 C 14,7 C 44 % 68 % 1010,9 hPa 0,0 l/m 14,5 km/h W-NW 292 8,9 C 11,0 C 20,9 km/h
25.04.2018 16:55 23,1 C 14,4 C 44 % 71 % 1010,9 hPa 0,0 l/m 16,1 km/h W 270 9,2 C 10,1 C 27,4 km/h
25.04.2018 16:50 23,0 C 14,2 C 44 % 69 % 1011,0 hPa 0,2 l/m 25,7 km/h W 270 8,6 C 7,4 C 38,6 km/h
25.04.2018 16:45 23,3 C 14,7 C 44 % 65 % 1011,1 hPa 0,0 l/m 24,1 km/h W 270 8,2 C 8,4 C 48,3 km/h
25.04.2018 16:40 23,5 C 14,8 C 44 % 68 % 1010,7 hPa 0,0 l/m 16,1 km/h W-SW 247 9,0 C 10,6 C 24,1 km/h
25.04.2018 16:35 23,4 C 15,0 C 44 % 67 % 1010,6 hPa 0,0 l/m 14,5 km/h W 270 8,9 C 11,4 C 24,1 km/h
25.04.2018 16:30 23,1 C 14,7 C 45 % 67 % 1010,7 hPa 0,0 l/m 17,7 km/h W-SW 247 8,6 C 10,0 C 25,7 km/h
25.04.2018 16:25 22,6 C 14,5 C 46 % 69 % 1010,7 hPa 0,0 l/m 14,5 km/h SW 225 8,9 C 10,8 C 22,5 km/h
25.04.2018 16:20 22,1 C 14,1 C 46 % 72 % 1010,8 hPa 0,0 l/m 14,5 km/h W-SW 247 9,1 C 10,3 C 22,5 km/h
25.04.2018 16:15 21,7 C 13,7 C 46 % 72 % 1010,9 hPa 0,0 l/m 16,1 km/h W-SW 247 8,7 C 9,2 C 22,5 km/h
25.04.2018 16:10 21,6 C 13,6 C 46 % 70 % 1011,0 hPa 0,0 l/m 19,3 km/h W-SW 247 8,2 C 8,1 C 32,2 km/h
25.04.2018 16:05 21,8 C 13,4 C 46 % 69 % 1011,1 hPa 0,0 l/m 22,5 km/h W-SW 247 7,8 C 7,0 C 29,0 km/h
25.04.2018 16:00 22,1 C 13,3 C 45 % 70 % 1011,0 hPa 0,0 l/m 25,7 km/h W-SW 247 7,9 C 6,2 C 40,2 km/h
25.04.2018 15:55 22,4 C 13,4 C 45 % 68 % 1010,9 hPa 0,0 l/m 27,4 km/h W 270 7,6 C 5,9 C 38,6 km/h
25.04.2018 15:50 22,7 C 13,8 C 45 % 70 % 1011,1 hPa 0,0 l/m 24,1 km/h W 270 8,4 C 7,2 C 33,8 km/h
25.04.2018 15:45 23,1 C 14,4 C 45 % 65 % 1011,0 hPa 0,0 l/m 30,6 km/h W 270 7,9 C 6,7 C 48,3 km/h
25.04.2018 15:40 23,5 C 14,7 C 45 % 64 % 1010,7 hPa 0,0 l/m 29,0 km/h W 270 8,0 C 7,4 C 53,1 km/h
25.04.2018 15:35 23,8 C 14,9 C 45 % 70 % 1010,8 hPa 0,0 l/m 27,4 km/h W 270 9,5 C 8,0 C 37,0 km/h
25.04.2018 15:30 23,9 C 15,0 C 46 % 68 % 1010,8 hPa 0,0 l/m 24,1 km/h W 270 9,1 C 8,8 C 33,8 km/h
25.04.2018 15:25 23,9 C 14,8 C 46 % 72 % 1010,8 hPa 0,0 l/m 22,5 km/h W-NW 292 9,8 C 8,9 C 33,8 km/h
25.04.2018 15:20 23,8 C 14,8 C 47 % 76 % 1010,8 hPa 0,0 l/m 17,7 km/h W 270 10,6 C 10,1 C 33,8 km/h
25.04.2018 15:15 23,7 C 14,3 C 47 % 78 % 1010,7 hPa 0,0 l/m 19,3 km/h W-SW 247 10,5 C 9,0 C 32,2 km/h
25.04.2018 15:10 23,6 C 14,3 C 47 % 78 % 1010,7 hPa 0,0 l/m 24,1 km/h W-SW 247 10,5 C 7,9 C 32,2 km/h
25.04.2018 15:05 23,7 C 14,4 C 48 % 76 % 1010,7 hPa 0,0 l/m 22,5 km/h W-SW 247 10,2 C 8,4 C 40,2 km/h
25.04.2018 15:00 23,4 C 14,3 C 48 % 79 % 1010,7 hPa 0,0 l/m 20,9 km/h W-SW 247 10,7 C 8,6 C 27,4 km/h
25.04.2018 14:55 23,1 C 14,1 C 49 % 80 % 1010,8 hPa 0,0 l/m 19,3 km/h W-SW 247 10,7 C 8,8 C 27,4 km/h
25.04.2018 14:50 22,7 C 13,8 C 49 % 81 % 1010,9 hPa 0,0 l/m 22,5 km/h SW 225 10,6 C 7,6 C 29,0 km/h
25.04.2018 14:45 22,3 C 13,6 C 50 % 81 % 1010,6 hPa 0,0 l/m 17,7 km/h SW 225 10,4 C 8,6 C 25,7 km/h
25.04.2018 14:40 21,9 C 13,3 C 51 % 82 % 1010,9 hPa 0,0 l/m 19,3 km/h W-SW 247 10,3 C 7,7 C 27,4 km/h
25.04.2018 14:35 21,7 C 13,2 C 51 % 82 % 1010,9 hPa 0,0 l/m 24,1 km/h W-SW 247 10,2 C 6,4 C 35,4 km/h
25.04.2018 14:30 21,4 C 13,0 C 51 % 83 % 1010,9 hPa 0,0 l/m 19,3 km/h W-SW 247 10,2 C 7,4 C 30,6 km/h
25.04.2018 14:25 21,1 C 12,8 C 52 % 85 % 1011,0 hPa 0,0 l/m 17,7 km/h W-SW 247 10,3 C 7,6 C 27,4 km/h
25.04.2018 14:20 20,7 C 12,3 C 52 % 86 % 1011,0 hPa 0,0 l/m 16,1 km/h W-SW 247 10,0 C 7,5 C 24,1 km/h
25.04.2018 14:15 20,3 C 11,9 C 53 % 86 % 1011,1 hPa 0,0 l/m 17,7 km/h W-SW 247 9,6 C 6,5 C 20,9 km/h
25.04.2018 14:10 20,1 C 11,8 C 53 % 86 % 1011,1 hPa 0,2 l/m 19,3 km/h W-SW 247 9,5 C 5,8 C 27,4 km/h
25.04.2018 14:05 19,9 C 11,7 C 53 % 86 % 1011,2 hPa 0,0 l/m 16,1 km/h W-SW 247 9,4 C 6,8 C 22,5 km/h
25.04.2018 14:00 19,9 C 11,6 C 53 % 85 % 1011,1 hPa 0,0 l/m 14,5 km/h W-SW 247 9,2 C 7,3 C 22,5 km/h
25.04.2018 13:55 19,8 C 11,6 C 52 % 84 % 1011,1 hPa 0,0 l/m 14,5 km/h W-SW 247 9,0 C 7,3 C 19,3 km/h
25.04.2018 13:50 19,7 C 11,5 C 52 % 85 % 1011,1 hPa 0,0 l/m 16,1 km/h W-SW 247 9,1 C 6,5 C 29,0 km/h
25.04.2018 13:45 19,7 C 11,6 C 52 % 83 % 1011,0 hPa 0,2 l/m 22,5 km/h W 270 8,8 C 4,6 C 30,6 km/h
25.04.2018 13:40 19,8 C 11,8 C 52 % 81 % 1011,0 hPa 0,0 l/m 22,5 km/h W 270 8,6 C 4,9 C 35,4 km/h
25.04.2018 13:35 19,9 C 12,1 C 51 % 79 % 1010,7 hPa 0,0 l/m 20,9 km/h W 270 8,6 C 5,7 C 35,4 km/h
25.04.2018 13:30 20,1 C 12,2 C 51 % 78 % 1010,7 hPa 0,0 l/m 22,5 km/h W 270 8,5 C 5,4 C 41,8 km/h
25.04.2018 13:25 20,2 C 12,2 C 51 % 78 % 1010,7 hPa 0,0 l/m 22,5 km/h W-NW 292 8,5 C 5,4 C 40,2 km/h
25.04.2018 13:20 20,2 C 12,3 C 51 % 77 % 1010,6 hPa 0,0 l/m 20,9 km/h W-NW 292 8,4 C 6,0 C 29,0 km/h
25.04.2018 13:15 20,2 C 12,2 C 51 % 79 % 1010,6 hPa 0,0 l/m 22,5 km/h W-NW 292 8,7 C 5,4 C 35,4 km/h
25.04.2018 13:10 20,3 C 12,2 C 51 % 80 % 1010,6 hPa 0,0 l/m 25,7 km/h W-NW 292 8,9 C 4,7 C 37,0 km/h
25.04.2018 13:05 20,4 C 12,3 C 51 % 80 % 1010,6 hPa 0,0 l/m 19,3 km/h W-NW 292 8,9 C 6,5 C 35,4 km/h
25.04.2018 13:00 20,7 C 12,5 C 50 % 81 % 1010,6 hPa 0,0 l/m 25,7 km/h W-NW 292 9,3 C 5,1 C 40,2 km/h
25.04.2018 12:55 20,9 C 12,9 C 50 % 80 % 1010,5 hPa 0,0 l/m 29,0 km/h W-NW 292 9,5 C 4,9 C 38,6 km/h
25.04.2018 12:50 21,1 C 13,9 C 49 % 75 % 1010,2 hPa 0,0 l/m 27,4 km/h W-NW 292 9,5 C 6,6 C 41,8 km/h
25.04.2018 12:45 21,2 C 14,5 C 49 % 73 % 1010,2 hPa 0,0 l/m 19,3 km/h W 270 9,7 C 9,3 C 29,0 km/h
25.04.2018 12:40 21,2 C 14,4 C 49 % 74 % 1010,1 hPa 0,0 l/m 17,7 km/h W 270 9,8 C 9,6 C 29,0 km/h
25.04.2018 12:35 21,2 C 14,4 C 49 % 73 % 1010,1 hPa 0,0 l/m 25,7 km/h W-SW 247 9,6 C 7,6 C 33,8 km/h
25.04.2018 12:30 21,1 C 14,3 C 49 % 73 % 1010,0 hPa 0,0 l/m 25,7 km/h W-SW 247 9,5 C 7,5 C 38,6 km/h
25.04.2018 12:25 21,2 C 14,4 C 49 % 73 % 1010,1 hPa 0,0 l/m 19,3 km/h W-SW 247 9,6 C 9,2 C 29,0 km/h
25.04.2018 12:20 21,3 C 14,6 C 49 % 73 % 1010,0 hPa 0,0 l/m 20,9 km/h W-SW 247 9,8 C 9,0 C 30,6 km/h
25.04.2018 12:15 21,4 C 14,6 C 49 % 72 % 1010,0 hPa 0,0 l/m 20,9 km/h W-SW 247 9,6 C 9,0 C 30,6 km/h
25.04.2018 12:10 21,3 C 14,6 C 49 % 72 % 1010,0 hPa 0,0 l/m 20,9 km/h W-SW 247 9,6 C 9,0 C 30,6 km/h
25.04.2018 12:05 20,9 C 14,5 C 50 % 73 % 1009,9 hPa 0,0 l/m 22,5 km/h W-SW 247 9,7 C 8,5 C 35,4 km/h
25.04.2018 12:00 20,7 C 14,3 C 50 % 74 % 1009,9 hPa 0,0 l/m 20,9 km/h W-SW 247 9,7 C 8,6 C 29,0 km/h
25.04.2018 11:55 20,6 C 14,2 C 50 % 74 % 1009,9 hPa 0,0 l/m 16,1 km/h W-SW 247 9,6 C 9,9 C 24,1 km/h
25.04.2018 11:50 20,6 C 14,2 C 50 % 74 % 1010,0 hPa 0,0 l/m 24,1 km/h W-SW 247 9,6 C 7,7 C 33,8 km/h
25.04.2018 11:45 20,7 C 14,2 C 50 % 74 % 1010,0 hPa 0,0 l/m 20,9 km/h W-SW 247 9,6 C 8,5 C 35,4 km/h
25.04.2018 11:40 20,6 C 14,2 C 50 % 74 % 1010,0 hPa 0,0 l/m 19,3 km/h W-SW 247 9,6 C 8,9 C 29,0 km/h
25.04.2018 11:35 20,6 C 14,2 C 50 % 74 % 1010,0 hPa 0,0 l/m 19,3 km/h W-SW 247 9,6 C 8,9 C 32,2 km/h
25.04.2018 11:30 20,4 C 14,1 C 51 % 74 % 1010,1 hPa 0,0 l/m 19,3 km/h W-SW 247 9,5 C 8,8 C 29,0 km/h
25.04.2018 11:25 20,3 C 14,1 C 50 % 74 % 1009,9 hPa 0,0 l/m 20,9 km/h W-SW 247 9,5 C 8,3 C 32,2 km/h
25.04.2018 11:20 20,3 C 14,1 C 51 % 74 % 1010,0 hPa 0,0 l/m 29,0 km/h W-SW 247 9,5 C 6,6 C 41,8 km/h
25.04.2018 11:15 20,3 C 14,1 C 51 % 74 % 1010,1 hPa 0,0 l/m 17,7 km/h W-SW 247 9,5 C 9,2 C 27,4 km/h
25.04.2018 11:10 20,3 C 14,1 C 51 % 74 % 1009,9 hPa 0,0 l/m 20,9 km/h W-SW 247 9,5 C 8,3 C 30,6 km/h
25.04.2018 11:05 20,3 C 14,1 C 50 % 74 % 1009,8 hPa 0,0 l/m 20,9 km/h W-SW 247 9,5 C 8,3 C 27,4 km/h
25.04.2018 11:00 20,4 C 14,1 C 50 % 75 % 1009,9 hPa 0,0 l/m 16,1 km/h W-SW 247 9,7 C 9,7 C 24,1 km/h
25.04.2018 10:55 20,4 C 14,1 C 50 % 74 % 1009,8 hPa 0,0 l/m 22,5 km/h W-SW 247 9,5 C 8,0 C 32,2 km/h
25.04.2018 10:50 20,5 C 14,0 C 50 % 75 % 1009,7 hPa 0,0 l/m 22,5 km/h W-SW 247 9,6 C 7,8 C 32,2 km/h
25.04.2018 10:45 20,6 C 13,9 C 50 % 75 % 1009,7 hPa 0,0 l/m 20,9 km/h W-SW 247 9,5 C 8,1 C 29,0 km/h
25.04.2018 10:40 20,7 C 13,9 C 49 % 74 % 1009,5 hPa 0,0 l/m 19,3 km/h W-SW 247 9,3 C 8,5 C 30,6 km/h
25.04.2018 10:35 20,9 C 13,9 C 49 % 75 % 1009,4 hPa 0,0 l/m 20,9 km/h W-SW 247 9,5 C 8,1 C 29,0 km/h
25.04.2018 10:30 21,1 C 14,0 C 48 % 74 % 1009,5 hPa 0,0 l/m 24,1 km/h W-SW 247 9,4 C 7,5 C 40,2 km/h
25.04.2018 10:25 21,3 C 14,0 C 48 % 75 % 1009,5 hPa 0,0 l/m 24,1 km/h W-SW 247 9,6 C 7,5 C 35,4 km/h
25.04.2018 10:20 21,6 C 14,0 C 48 % 75 % 1009,5 hPa 0,0 l/m 17,7 km/h SW 225 9,6 C 9,1 C 29,0 km/h
25.04.2018 10:15 21,8 C 14,0 C 47 % 74 % 1009,5 hPa 0,0 l/m 19,3 km/h SW 225 9,4 C 8,6 C 27,4 km/h
25.04.2018 10:10 21,9 C 14,0 C 47 % 75 % 1009,5 hPa 0,0 l/m 19,3 km/h W-SW 247 9,6 C 8,6 C 32,2 km/h
25.04.2018 10:05 22,1 C 14,0 C 47 % 74 % 1009,4 hPa 0,0 l/m 24,1 km/h SW 225 9,4 C 7,5 C 32,2 km/h
25.04.2018 10:00 22,2 C 13,9 C 47 % 75 % 1009,4 hPa 0,0 l/m 27,4 km/h W-SW 247 9,5 C 6,6 C 40,2 km/h
25.04.2018 09:55 22,2 C 13,9 C 47 % 75 % 1009,4 hPa 0,0 l/m 24,1 km/h SW 225 9,5 C 7,3 C 37,0 km/h
25.04.2018 09:50 21,9 C 13,9 C 48 % 74 % 1009,4 hPa 0,0 l/m 22,5 km/h SW 225 9,3 C 7,7 C 33,8 km/h
25.04.2018 09:45 21,5 C 13,8 C 49 % 76 % 1009,3 hPa 0,0 l/m 19,3 km/h W-SW 247 9,6 C 8,4 C 32,2 km/h
25.04.2018 09:40 21,2 C 13,7 C 49 % 76 % 1009,4 hPa 0,0 l/m 22,5 km/h W-SW 247 9,5 C 7,4 C 30,6 km/h
25.04.2018 09:35 20,9 C 13,7 C 50 % 76 % 1009,2 hPa 0,0 l/m 22,5 km/h W-SW 247 9,5 C 7,4 C 30,6 km/h
25.04.2018 09:30 20,5 C 13,6 C 50 % 77 % 1009,2 hPa 0,0 l/m 22,5 km/h W-SW 247 9,6 C 7,3 C 33,8 km/h
25.04.2018 09:25 20,2 C 13,4 C 51 % 77 % 1009,2 hPa 0,0 l/m 19,3 km/h W-SW 247 9,5 C 7,9 C 27,4 km/h
25.04.2018 09:20 20,1 C 13,3 C 51 % 76 % 1009,2 hPa 0,0 l/m 27,4 km/h W-SW 247 9,2 C 5,8 C 40,2 km/h
25.04.2018 09:15 19,9 C 13,3 C 51 % 77 % 1009,3 hPa 0,0 l/m 20,9 km/h W-SW 247 9,4 C 7,3 C 33,8 km/h
25.04.2018 09:10 19,9 C 13,3 C 51 % 77 % 1009,1 hPa 0,0 l/m 22,5 km/h W-SW 247 9,4 C 6,9 C 35,4 km/h
25.04.2018 09:05 19,9 C 13,2 C 51 % 77 % 1009,1 hPa 0,0 l/m 19,3 km/h W-SW 247 9,3 C 7,6 C 33,8 km/h
25.04.2018 09:00 19,9 C 13,2 C 51 % 77 % 1009,0 hPa 0,0 l/m 20,9 km/h W-SW 247 9,3 C 7,2 C 29,0 km/h
25.04.2018 08:55 20,1 C 13,2 C 50 % 77 % 1009,1 hPa 0,0 l/m 24,1 km/h W-SW 247 9,3 C 6,4 C 37,0 km/h
25.04.2018 08:50 20,2 C 13,2 C 50 % 77 % 1009,1 hPa 0,0 l/m 22,5 km/h W-SW 247 9,3 C 6,8 C 33,8 km/h
25.04.2018 08:45 20,3 C 13,2 C 50 % 77 % 1009,1 hPa 0,0 l/m 22,5 km/h W-SW 247 9,3 C 6,8 C 30,6 km/h
25.04.2018 08:40 20,5 C 13,2 C 49 % 76 % 1009,1 hPa 0,0 l/m 22,5 km/h W-SW 247 9,1 C 6,8 C 33,8 km/h
25.04.2018 08:35 20,7 C 13,2 C 49 % 77 % 1009,0 hPa 0,0 l/m 19,3 km/h W-SW 247 9,3 C 7,6 C 27,4 km/h
25.04.2018 08:30 20,7 C 13,2 C 49 % 77 % 1009,1 hPa 0,0 l/m 20,9 km/h W-SW 247 9,3 C 7,2 C 29,0 km/h
25.04.2018 08:25 20,7 C 13,1 C 49 % 77 % 1009,0 hPa 0,0 l/m 19,3 km/h W-SW 247 9,2 C 7,5 C 29,0 km/h
25.04.2018 08:20 20,6 C 13,1 C 49 % 77 % 1009,0 hPa 0,0 l/m 20,9 km/h W-SW 247 9,2 C 7,0 C 32,2 km/h
25.04.2018 08:15 20,6 C 12,9 C 49 % 77 % 1008,9 hPa 0,0 l/m 14,5 km/h W-SW 247 9,0 C 8,8 C 22,5 km/h
25.04.2018 08:10 20,6 C 12,8 C 50 % 77 % 1008,9 hPa 0,0 l/m 9,7 km/h W 270 8,9 C 10,8 C 14,5 km/h
25.04.2018 08:05 20,4 C 12,8 C 50 % 78 % 1009,1 hPa 0,0 l/m 9,7 km/h W 270 9,1 C 10,8 C 14,5 km/h
25.04.2018 08:00 20,0 C 12,8 C 51 % 77 % 1009,1 hPa 0,0 l/m 12,9 km/h W-SW 247 8,9 C 9,4 C 19,3 km/h
25.04.2018 07:55 19,7 C 12,6 C 51 % 77 % 1008,8 hPa 0,0 l/m 14,5 km/h SW 225 8,7 C 8,5 C 22,5 km/h
25.04.2018 07:50 19,7 C 12,3 C 51 % 78 % 1008,8 hPa 0,0 l/m 14,5 km/h SW 225 8,6 C 8,1 C 19,3 km/h
25.04.2018 07:45 19,5 C 12,2 C 51 % 78 % 1008,7 hPa 0,0 l/m 14,5 km/h SW 225 8,5 C 8,0 C 19,3 km/h
25.04.2018 07:40 19,2 C 12,0 C 52 % 78 % 1008,7 hPa 0,0 l/m 12,9 km/h SW 225 8,3 C 8,4 C 22,5 km/h
25.04.2018 07:35 19,2 C 11,8 C 51 % 78 % 1008,8 hPa 0,0 l/m 12,9 km/h W-SW 247 8,1 C 8,2 C 17,7 km/h
25.04.2018 07:30 19,2 C 11,7 C 51 % 79 % 1008,8 hPa 0,0 l/m 12,9 km/h W-SW 247 8,2 C 8,1 C 17,7 km/h
25.04.2018 07:25 19,2 C 11,7 C 51 % 78 % 1008,8 hPa 0,0 l/m 14,5 km/h W-SW 247 8,0 C 7,4 C 19,3 km/h
25.04.2018 07:20 19,2 C 11,7 C 51 % 78 % 1008,6 hPa 0,0 l/m 14,5 km/h W-SW 247 8,0 C 7,4 C 17,7 km/h
25.04.2018 07:15 19,4 C 11,6 C 51 % 78 % 1008,6 hPa 0,0 l/m 12,9 km/h W-SW 247 7,9 C 7,9 C 17,7 km/h
25.04.2018 07:10 19,3 C 11,5 C 51 % 78 % 1008,6 hPa 0,0 l/m 14,5 km/h W-SW 247 7,8 C 7,2 C 17,7 km/h
25.04.2018 07:05 19,1 C 11,4 C 52 % 78 % 1008,8 hPa 0,0 l/m 12,9 km/h W-SW 247 7,7 C 7,7 C 19,3 km/h
25.04.2018 07:00 18,7 C 11,4 C 53 % 78 % 1008,8 hPa 0,0 l/m 12,9 km/h W-SW 247 7,7 C 7,7 C 19,3 km/h
25.04.2018 06:55 18,2 C 11,3 C 54 % 79 % 1008,9 hPa 0,0 l/m 11,3 km/h W-SW 247 7,8 C 8,4 C 16,1 km/h
25.04.2018 06:50 18,1 C 11,2 C 54 % 79 % 1008,8 hPa 0,0 l/m 8,0 km/h W-SW 247 7,7 C 10,1 C 12,9 km/h
25.04.2018 06:45 18,1 C 11,2 C 54 % 79 % 1008,9 hPa 0,0 l/m 8,0 km/h W 270 7,7 C 10,1 C 11,3 km/h
25.04.2018 06:40 18,0 C 11,1 C 54 % 79 % 1009,0 hPa 0,0 l/m 8,0 km/h W-SW 247 7,6 C 10,0 C 12,9 km/h
25.04.2018 06:35 18,0 C 11,2 C 54 % 79 % 1008,8 hPa 0,0 l/m 8,0 km/h W-SW 247 7,7 C 10,1 C 11,3 km/h
25.04.2018 06:30 18,0 C 11,2 C 53 % 79 % 1008,9 hPa 0,0 l/m 9,7 km/h W-SW 247 7,7 C 9,1 C 12,9 km/h
25.04.2018 06:25 18,0 C 11,2 C 53 % 79 % 1008,9 hPa 0,0 l/m 9,7 km/h W-SW 247 7,7 C 9,1 C 16,1 km/h
25.04.2018 06:20 17,9 C 11,2 C 53 % 79 % 1008,9 hPa 0,0 l/m 9,7 km/h W-SW 247 7,7 C 9,1 C 14,5 km/h
25.04.2018 06:15 18,0 C 11,1 C 53 % 79 % 1009,0 hPa 0,0 l/m 8,0 km/h W 270 7,6 C 10,0 C 12,9 km/h
25.04.2018 06:10 18,0 C 11,2 C 53 % 78 % 1009,1 hPa 0,0 l/m 9,7 km/h W 270 7,5 C 9,1 C 12,9 km/h
25.04.2018 06:05 18,0 C 11,1 C 53 % 79 % 1009,0 hPa 0,0 l/m 8,0 km/h W 270 7,6 C 10,0 C 12,9 km/h
25.04.2018 06:00 18,0 C 11,1 C 53 % 79 % 1009,2 hPa 0,0 l/m 8,0 km/h W 270 7,6 C 10,0 C 11,3 km/h
25.04.2018 05:55 18,0 C 11,1 C 53 % 78 % 1009,1 hPa 0,0 l/m 6,4 km/h W 270 7,4 C 11,1 C 9,7 km/h
25.04.2018 05:50 17,9 C 11,0 C 53 % 79 % 1009,1 hPa 0,0 l/m 6,4 km/h W 270 7,5 C 11,0 C 9,7 km/h
25.04.2018 05:45 18,0 C 10,9 C 53 % 79 % 1009,1 hPa 0,0 l/m 4,8 km/h W-SW 247 7,4 C 10,9 C 9,7 km/h
25.04.2018 05:40 17,9 C 10,9 C 53 % 78 % 1009,2 hPa 0,0 l/m 3,2 km/h SW 225 7,2 C 10,9 C 4,8 km/h
25.04.2018 05:35 17,9 C 11,1 C 53 % 78 % 1009,1 hPa 0,0 l/m 3,2 km/h SW 225 7,4 C 11,1 C 6,4 km/h
25.04.2018 05:30 17,9 C 11,3 C 53 % 77 % 1009,1 hPa 0,0 l/m 8,0 km/h SW 225 7,4 C 10,2 C 14,5 km/h
25.04.2018 05:25 17,9 C 11,4 C 53 % 77 % 1009,2 hPa 0,0 l/m 9,7 km/h W-SW 247 7,5 C 9,3 C 12,9 km/h
25.04.2018 05:20 18,0 C 11,5 C 53 % 77 % 1009,4 hPa 0,0 l/m 11,3 km/h W-SW 247 7,6 C 8,6 C 14,5 km/h
25.04.2018 05:15 18,1 C 11,4 C 53 % 76 % 1009,4 hPa 0,0 l/m 9,7 km/h W 270 7,3 C 9,3 C 12,9 km/h
25.04.2018 05:10 18,1 C 11,6 C 53 % 76 % 1009,3 hPa 0,0 l/m 8,0 km/h W 270 7,5 C 10,5 C 12,9 km/h
25.04.2018 05:05 18,1 C 11,6 C 52 % 76 % 1009,4 hPa 0,0 l/m 9,7 km/h W-SW 247 7,5 C 9,5 C 12,9 km/h
25.04.2018 05:00 18,1 C 11,6 C 52 % 76 % 1009,3 hPa 0,0 l/m 8,0 km/h W-SW 247 7,5 C 10,5 C 12,9 km/h
25.04.2018 04:55 18,2 C 11,7 C 52 % 76 % 1009,4 hPa 0,0 l/m 8,0 km/h W-SW 247 7,6 C 10,6 C 12,9 km/h
25.04.2018 04:50 18,2 C 11,8 C 52 % 75 % 1009,3 hPa 0,0 l/m 9,7 km/h W-SW 247 7,5 C 9,7 C 12,9 km/h
25.04.2018 04:45 18,2 C 11,9 C 52 % 75 % 1009,4 hPa 0,0 l/m 11,3 km/h W-SW 247 7,6 C 9,0 C 16,1 km/h
25.04.2018 04:40 18,3 C 12,0 C 52 % 75 % 1009,3 hPa 0,0 l/m 11,3 km/h W-SW 247 7,7 C 9,1 C 14,5 km/h
25.04.2018 04:35 18,3 C 11,9 C 52 % 75 % 1009,4 hPa 0,0 l/m 9,7 km/h SW 225 7,6 C 9,9 C 14,5 km/h
25.04.2018 04:30 18,3 C 12,1 C 52 % 74 % 1009,4 hPa 0,0 l/m 9,7 km/h W-SW 247 7,6 C 10,1 C 16,1 km/h
25.04.2018 04:25 18,3 C 12,1 C 52 % 74 % 1009,4 hPa 0,0 l/m 8,0 km/h SW 225 7,6 C 11,1 C 14,5 km/h
25.04.2018 04:20 18,4 C 12,2 C 51 % 74 % 1009,5 hPa 0,0 l/m 9,7 km/h W-SW 247 7,7 C 10,2 C 14,5 km/h
25.04.2018 04:15 18,4 C 12,2 C 51 % 73 % 1009,5 hPa 0,0 l/m 9,7 km/h W-SW 247 7,5 C 10,2 C 14,5 km/h
25.04.2018 04:10 18,5 C 12,2 C 51 % 73 % 1009,6 hPa 0,0 l/m 9,7 km/h W-SW 247 7,5 C 10,2 C 14,5 km/h
25.04.2018 04:05 18,5 C 12,2 C 51 % 73 % 1009,8 hPa 0,0 l/m 9,7 km/h W-SW 247 7,5 C 10,2 C 16,1 km/h
25.04.2018 04:00 18,6 C 12,3 C 51 % 73 % 1009,8 hPa 0,0 l/m 8,0 km/h W-SW 247 7,6 C 11,3 C 14,5 km/h
_ Min-Zeit 03:10 03:15 18:00 19:00 07:10 - 05:35 - - 02:10 02:55 05:40
Minimum _ 15,2 C 8,1 C 38 % 57 % 1008,6 hPa - 3,2 km/h - - 2,0 C 1,2 C 4,8 km/h
_ Max-Zeit 17:30 17:50 06:35 14:05 02:00 13:45 15:45 - - 15:00 18:55 15:40
Maximum _ 24,6 C 15,3 C 54 % 86 % 1013,7 hPa 0,2 l/m 30,6 km/h
W
- - 10,7 C 12,9 C 53,1 km/h
W
Durchschnitt _ 19,7 C 12,6 C 49 % 71 % 1010,7 hPa #0,6 l/m 15,7 km/h W-SW - 7,4 C 8,4 C 23,2 km/h